Weather History for Newark Heath, OH

Change the Weather History Date:

Wednesday, December 5, 2012

  Actual Average Record
Temperature  
Mean Temperature 36 °F -  
Max Temperature 43 °F 43 °F 70 °F (2001)
Min Temperature 28 °F 27 °F 1 °F (1957)
Degree Days  
Heating Degree Days 28    
Moisture  
Dew Point 30 °F    
Average Humidity 81    
Maximum Humidity 100    
Minimum Humidity 57    
Precipitation  
Precipitation 0.00 in - - ()
Sea Level Pressure  
Sea Level Pressure 30.28 in    
Wind  
Wind Speed 2 mph (NNW)    
Max Wind Speed 9 mph    
Max Gust Speed 17 mph    
Visibility 5 miles    
Events Fog    
Averages and records for this station are not official NWS values.
T = Trace of Precipitation, MM = Missing Value Source: NWS Daily Summary

Daily Weather History Graph

Daily Weather History Graph

Search for Another Location

Airport:

Trip Planner

Search our weather history database for the weather conditions in past years. The results will help you decide how hot, cold, wet, or windy it might be!

Date:

Astronomy

Dec. 05, 2012 Rise Set
Actual Time 7:36 AM EST 5:04 PM EST
Civil Twilight 7:06 AM EST 5:34 PM EST
Nautical Twilight 6:32 AM EST 6:08 PM EST
Astronomical Twilight 6:00 AM EST 6:41 PM EST
Moon 11:52 PM EST (12/5) 11:59 AM EST (12/5)
Length of Visible Light 10h 28m
Length of Day
9h 27m
Waning Gibbous, 60% of the Moon is Illuminated
Dec 5
Waning Gibbous
Dec 6
Last Quarter
Dec 13
New
Dec 20
First Quarter
Dec 28
Full

Hourly Weather History & Observations

Time (EST) Temp. Windchill Dew Point Humidity Pressure Visibility Wind Dir Wind Speed Gust Speed Precip Events Conditions
12:54 AM 41.0 °F 38.0 °F 39.0 °F 93% 30.18 in 7.0 mi SSW 4.6 mph - N/A   Clear
1:54 AM 39.9 °F - 37.9 °F 93% 30.19 in 6.0 mi Calm Calm - N/A   Clear
2:28 AM 37.4 °F - 35.6 °F 93% 30.19 in 1.5 mi Calm Calm - N/A   Clear
2:37 AM 37.4 °F - 35.6 °F 93% 30.20 in 0.5 mi Calm Calm - N/A Fog Fog
2:47 AM 37.4 °F - 35.6 °F 93% 30.20 in 0.5 mi Calm Calm - N/A Fog Fog
2:54 AM 37.9 °F - 36.0 °F 93% 30.21 in 1.0 mi Calm Calm - N/A   Clear
3:01 AM 37.4 °F - 35.6 °F 93% 30.20 in 3.0 mi Calm Calm - N/A   Clear
3:43 AM 37.4 °F - 35.6 °F 93% 30.21 in 1.8 mi Calm Calm - N/A   Clear
3:54 AM 36.0 °F - 34.0 °F 93% 30.23 in 1.0 mi Calm Calm - N/A   Clear
4:01 AM 35.6 °F - 33.8 °F 93% 30.22 in 0.5 mi Calm Calm - N/A Fog Fog
4:16 AM 35.6 °F - 35.6 °F 100% 30.22 in 1.8 mi Calm Calm - N/A   Clear
4:32 AM 35.6 °F 32.8 °F 33.8 °F 93% 30.23 in 0.8 mi SSW 3.5 mph - N/A   Clear
4:44 AM 32.0 °F - 30.2 °F 93% 30.22 in 0.2 mi Calm Calm - N/A Fog Fog
4:54 AM 32.0 °F - 30.9 °F 96% 30.24 in 0.2 mi Calm Calm - N/A Fog Fog
5:13 AM 33.8 °F - 30.2 °F 87% 30.23 in 0.5 mi Calm Calm - N/A Fog Fog
5:21 AM 33.8 °F - 30.2 °F 87% 30.23 in 0.2 mi Calm Calm - N/A Fog Fog
5:54 AM 33.1 °F - 30.9 °F 92% 30.25 in 0.5 mi Calm Calm - N/A Fog Fog
6:07 AM 32.0 °F - 30.2 °F 93% 30.24 in 0.2 mi Calm Calm - N/A Fog Fog
6:28 AM 33.8 °F - 30.2 °F 87% 30.25 in 0.5 mi Calm Calm - N/A Fog Fog
6:40 AM 33.8 °F - 30.2 °F 87% 30.25 in 0.2 mi Calm Calm - N/A Fog Fog
6:54 AM 33.1 °F - 30.9 °F 92% 30.27 in 0.2 mi Calm Calm - N/A Fog Fog
7:54 AM 30.9 °F - 28.9 °F 92% 30.30 in 0.2 mi Calm Calm - N/A Fog Light Freezing Fog
9:54 AM 39.9 °F 34.5 °F 33.1 °F 77% 30.34 in 10.0 mi NW 8.1 mph - N/A   Clear
10:54 AM 42.1 °F 36.6 °F 32.0 °F 67% 30.35 in 10.0 mi NNW 9.2 mph - N/A   Scattered Clouds
11:46 AM 42.8 °F 37.5 °F 32.0 °F 66% 30.33 in 10.0 mi NNW 9.2 mph - N/A   Mostly Cloudy
11:54 AM 42.1 °F 37.7 °F 30.9 °F 65% 30.34 in 10.0 mi NNW 6.9 mph 17.3 mph N/A   Mostly Cloudy
12:41 PM 42.8 °F 37.5 °F 30.2 °F 61% 30.32 in 10.0 mi NW 9.2 mph - N/A   Scattered Clouds
12:54 PM 43.0 °F 38.2 °F 30.0 °F 60% 30.33 in 10.0 mi North 8.1 mph - N/A   Partly Cloudy
1:54 PM 42.1 °F 38.4 °F 28.9 °F 60% 30.32 in 10.0 mi NW 5.8 mph - N/A   Partly Cloudy
2:54 PM 42.1 °F 37.7 °F 28.0 °F 58% 30.33 in 10.0 mi NE 6.9 mph - N/A   Scattered Clouds
3:54 PM 39.9 °F 35.1 °F 27.0 °F 60% 30.35 in 10.0 mi North 6.9 mph - N/A   Mostly Cloudy
4:54 PM 39.0 °F 34.8 °F 25.0 °F 57% 30.37 in 10.0 mi NNE 5.8 mph - N/A   Clear
5:54 PM 36.0 °F 31.1 °F 24.1 °F 62% 30.37 in 10.0 mi NNE 5.8 mph - N/A   Clear
6:54 PM 34.0 °F - 24.1 °F 67% 30.38 in 10.0 mi Calm Calm - N/A   Clear
7:54 PM 33.1 °F 28.7 °F 24.1 °F 70% 30.38 in 10.0 mi NNE 4.6 mph - N/A   Clear
8:54 PM 32.0 °F - 23.0 °F 69% 30.36 in 10.0 mi Calm Calm - N/A   Clear
9:54 PM 30.9 °F - 21.9 °F 69% 30.36 in 10.0 mi Calm Calm - N/A   Clear
10:54 PM 30.9 °F - 21.9 °F 69% 30.36 in 10.0 mi Calm Calm - N/A   Clear
11:54 PM 28.9 °F - 21.9 °F 75% 30.36 in 10.0 mi Calm Calm - N/A   Clear